Francisco C. Ada Saipan International Airport
PGSN : now visible

Airfield :











YOU CAN JOIN US ON...

 
LOGIN :

Register | Disclaimer

   EN    FR    IT 

 









Legend :    VFR   Marginal VFR   IFR   Intensive IFR   Very Intensive IFR
Visi :
Ceiling :
>= 8 km
>= 3000ft
5 to 8 km
1000 to 3000 ft
1500m to 5 km
500 to 1000 ft
800 to 1500m
200 to 500 ft
< 800m
< 200 ft
Symbols :   Thunderstorms  Fog  Heavy snow  Heavy precipitations  Wind > 20 kt






- Airport Elevation : 215 ft
- IATA code : SPN


PGSN - Francisco C. Ada Saipan International

CURRENT METAR :
  • 070254Z 07015KT 10SM FEW023 SCT032 32/23 A2986 RMK AO2 SLP131 T03220233 56011 $

EXPIRED METARs :
  • 070154Z 07015KT 10SM SCT022 32/24 A2987 RMK AO2 SLP134 T03220239 $
  • 070054Z 10015KT 10SM FEW023 32/23 A2988 RMK AO2 SLP138 T03220233 $

TAF PGSN
Valid from the 07 at 00:00 until the 08 at 00:00 UTC


062320Z 0700/0724 10014KT P6SM SCT021
FM070900 09008KT P6SM SCT020
PGZU FIR / Oceania



MET'MAP, your aeronautical weather chart ! - Copyright ORBIFLY December 2007 - Disclaimer

ORBIFLY MET'MAP TEAM :

Programming & Development : Alexandra Zaïnal
Concept & original design : Baudouin d'Aumeries
Assistance for programming : Marc-Olivier Méhu
Technical & hardware support : Manuel Goepfert

Contact : metmap@orbifly.com




SOURCES & CREDITS :

   NOAA       Earth
Advisory